| time (UTC) | temp F | wind direction | speed MPH | gust MPH | rain 1hr in | rain 24hr in | rain mn in | humidity % | barometer mb |
| 20260831213511 | 79 | 174 | 11.0 | 21.0 | 0.00 | 0.00 | 0.00 | 12 | 1009.5 |
| 20260831213009 | 79 | 201 | 9.0 | 21.0 | 0.00 | 0.00 | 0.00 | 12 | 1009.4 |
| 20260831212507 | 80 | 160 | 8.0 | 18.0 | 0.00 | 0.00 | 0.00 | 12 | 1009.4 |
| 20260831212010 | 78 | 187 | 6.0 | 18.0 | 0.00 | 0.00 | 0.00 | 11 | 1009.5 |
| 20260831211507 | 79 | 176 | 9.0 | 18.0 | 0.00 | 0.00 | 0.00 | 13 | 1009.5 |
| 20260831211007 | 78 | 174 | 9.0 | 18.0 | 0.00 | 0.00 | 0.00 | 15 | 1009.6 |
| 20260831210511 | 78 | 159 | 12.0 | 22.0 | 0.00 | 0.00 | 0.00 | 14 | 1009.6 |
| 20260831210007 | 79 | 168 | 10.0 | 16.0 | 0.00 | 0.00 | 0.00 | 15 | 1009.7 |
| 20260831205506 | 78 | 187 | 5.0 | 17.0 | 0.00 | 0.00 | 0.00 | 15 | 1009.7 |
| 20260831205007 | 77 | 163 | 11.0 | 17.0 | 0.00 | 0.00 | 0.00 | 17 | 1009.6 |
| 20260831204507 | 77 | 152 | 10.0 | 18.0 | 0.00 | 0.00 | 0.00 | 18 | 1009.8 |
| 20260831204009 | 76 | 170 | 11.0 | 20.0 | 0.00 | 0.00 | 0.00 | 18 | 1009.9 |
| 20260831203506 | 77 | 181 | 8.0 | 20.0 | 0.00 | 0.00 | 0.00 | 16 | 1010.0 |
| 20260831203006 | 77 | 169 | 3.0 | 16.0 | 0.00 | 0.00 | 0.00 | 17 | 1010.0 |
| 20260831202509 | 78 | 201 | 8.0 | 16.0 | 0.00 | 0.00 | 0.00 | 14 | 1010.0 |
| 20260831202007 | 78 | 206 | 3.0 | 15.0 | 0.00 | 0.00 | 0.00 | 13 | 1010.0 |
| 20260831201506 | 78 | 205 | 2.0 | 19.0 | 0.00 | 0.00 | 0.00 | 16 | 1009.9 |
| 20260831201007 | 77 | 194 | 5.0 | 19.0 | 0.00 | 0.00 | 0.00 | 18 | 1010.0 |
| 20260831200506 | 77 | 201 | 6.0 | 16.0 | 0.00 | 0.00 | 0.00 | 20 | 1010.0 |
| 20260831200006 | 76 | 183 | 9.0 | 16.0 | 0.00 | 0.00 | 0.00 | 21 | 1010.0 |
| 20260831195507 | 76 | 172 | 6.0 | 16.0 | 0.00 | 0.00 | 0.00 | 22 | 1010.0 |
| 20260831195007 | 76 | 173 | 7.0 | 15.0 | 0.00 | 0.00 | 0.00 | 21 | 1010.2 |
| 20260831194511 | 77 | 189 | 7.0 | 14.0 | 0.00 | 0.00 | 0.00 | 20 | 1010.2 |
| 20260831194007 | 77 | 198 | 10.0 | 16.0 | 0.00 | 0.00 | 0.00 | 19 | 1010.2 |
| 20260831193506 | 77 | 179 | 6.0 | 18.0 | 0.00 | 0.00 | 0.00 | 18 | 1010.2 |
| 20260831193007 | 77 | 204 | 5.0 | 18.0 | 0.00 | 0.00 | 0.00 | 15 | 1010.2 |
| 20260831192506 | 77 | 185 | 5.0 | 15.0 | 0.00 | 0.00 | 0.00 | 15 | 1010.3 |
| 20260831192011 | 77 | 193 | 6.0 | 15.0 | 0.00 | 0.00 | 0.00 | 16 | 1010.3 |
| 20260831191506 | 77 | 215 | 5.0 | 13.0 | 0.00 | 0.00 | 0.00 | 15 | 1010.3 |
| 20260831191007 | 77 | 180 | 9.0 | 13.0 | 0.00 | 0.00 | 0.00 | 15 | 1010.4 |
| 20260831190507 | 77 | 195 | 4.0 | 15.0 | 0.00 | 0.00 | 0.00 | 15 | 1010.3 |
| 20260831190010 | 76 | 195 | 9.0 | 15.0 | 0.00 | 0.00 | 0.00 | 17 | 1010.3 |
| 20260831185507 | 77 | 154 | 6.0 | 12.0 | 0.00 | 0.00 | 0.00 | 13 | 1010.3 |
| 20260831185006 | 76 | 185 | 5.0 | 12.0 | 0.00 | 0.00 | 0.00 | 17 | 1010.3 |
| 20260831184507 | 76 | 191 | 4.0 | 15.0 | 0.00 | 0.00 | 0.00 | 17 | 1010.4 |
| 20260831184006 | 75 | 195 | 3.0 | 15.0 | 0.00 | 0.00 | 0.00 | 18 | 1010.4 |
| 20260831183506 | 75 | 201 | 8.0 | 15.0 | 0.00 | 0.00 | 0.00 | 18 | 1010.4 |
| 20260831183006 | 75 | 191 | 10.0 | 15.0 | 0.00 | 0.00 | 0.00 | 17 | 1010.5 |
| 20260831182507 | 75 | 193 | 9.0 | 15.0 | 0.00 | 0.00 | 0.00 | 17 | 1010.5 |
| 20260831182007 | 75 | 173 | 2.0 | 15.0 | 0.00 | 0.00 | 0.00 | 17 | 1010.5 |
| 20260831181507 | 76 | 195 | 3.0 | 13.0 | 0.00 | 0.00 | 0.00 | 16 | 1010.5 |
| 20260831181107 | 75 | 196 | 4.0 | 13.0 | 0.00 | 0.00 | 0.00 | 16 | 1010.6 |
| 20260831180507 | 74 | 170 | 8.0 | 14.0 | 0.00 | 0.00 | 0.00 | 17 | 1010.5 |
| 20260831180006 | 74 | 206 | 8.0 | 16.0 | 0.00 | 0.00 | 0.00 | 18 | 1010.5 |
| 20260831175507 | 73 | 189 | 9.0 | 16.0 | 0.00 | 0.00 | 0.00 | 18 | 1010.5 |
| 20260831175008 | 74 | 168 | 9.0 | 17.0 | 0.00 | 0.00 | 0.00 | 18 | 1010.5 |
| 20260831174507 | 74 | 183 | 8.0 | 17.0 | 0.00 | 0.00 | 0.00 | 17 | 1010.5 |
| 20260831174008 | 74 | 184 | 11.0 | 16.0 | 0.00 | 0.00 | 0.00 | 15 | 1010.3 |
| 20260831173510 | 75 | 159 | 9.0 | 13.0 | 0.00 | 0.00 | 0.00 | 15 | 1010.2 |
| 20260831173007 | 75 | 206 | 9.0 | 13.0 | 0.00 | 0.00 | 0.00 | 15 | 1010.2 |
| 20260831172507 | 75 | 163 | 6.0 | 14.0 | 0.00 | 0.00 | 0.00 | 15 | 1010.0 |
| 20260831172007 | 75 | 168 | 6.0 | 11.0 | 0.00 | 0.00 | 0.00 | 14 | 1009.9 |
| 20260831171607 | 75 | 193 | 5.0 | 11.0 | 0.00 | 0.00 | 0.00 | 14 | 1010.0 |
| 20260831171007 | 74 | 175 | 8.0 | 11.0 | 0.00 | 0.00 | 0.00 | 15 | 1010.0 |
| 20260831170507 | 74 | 168 | 5.0 | 11.0 | 0.00 | 0.00 | 0.00 | 16 | 1009.9 |
| 20260831170007 | 74 | 187 | 7.0 | 11.0 | 0.00 | 0.00 | 0.00 | 16 | 1009.9 |
| 20260831165506 | 73 | 189 | 0.0 | 7.0 | 0.00 | 0.00 | 0.00 | 19 | 1009.9 |
| 20260831165007 | 71 | 189 | 1.0 | 7.0 | 0.00 | 0.00 | 0.00 | 23 | 1009.9 |
| 20260831164515 | 70 | 243 | 1.0 | 4.0 | 0.00 | 0.00 | 0.00 | 28 | 1009.9 |
| 20260831164008 | 69 | 243 | 0.0 | 3.0 | 0.00 | 0.00 | 0.00 | 29 | 1009.9 |
| 20260831163508 | 69 | 243 | 1.0 | 5.0 | 0.00 | 0.00 | 0.00 | 30 | 1009.9 |
| 20260831163008 | 68 | 243 | 1.0 | 5.0 | 0.00 | 0.00 | 0.00 | 30 | 1009.9 |
| 20260831162506 | 68 | 240 | 0.0 | 0.0 | 0.00 | 0.00 | 0.00 | 29 | 1009.9 |
| 20260831162007 | 67 | 239 | 0.0 | 0.0 | 0.00 | 0.00 | 0.00 | 31 | 1009.9 |
| 20260831161507 | 67 | 239 | 0.0 | 0.0 | 0.00 | 0.00 | 0.00 | 32 | 1009.9 |
| 20260831161007 | 66 | 239 | 0.0 | 0.0 | 0.00 | 0.00 | 0.00 | 32 | 1009.9 |
| 20260831160507 | 66 | 239 | 0.0 | 0.0 | 0.00 | 0.00 | 0.00 | 33 | 1010.0 |
| 20260831160007 | 66 | 239 | 0.0 | 0.0 | 0.00 | 0.00 | 0.00 | 33 | 1010.0 |
| 20260831155507 | 65 | 239 | 0.0 | 0.0 | 0.00 | 0.00 | 0.00 | 33 | 1010.0 |
| 20260831155007 | 65 | 238 | 0.0 | 0.0 | 0.00 | 0.00 | 0.00 | 34 | 1010.1 |
| 20260831154508 | 65 | 315 | 0.0 | 0.0 | 0.00 | 0.00 | 0.00 | 33 | 1010.1 |
| 20260831154006 | 64 | 315 | 0.0 | 0.0 | 0.00 | 0.00 | 0.00 | 34 | 1010.1 |
| 20260831153509 | 63 | 315 | 0.0 | 0.0 | 0.00 | 0.00 | 0.00 | 34 | 1010.2 |
| 20260831153008 | 62 | 315 | 0.0 | 0.0 | 0.00 | 0.00 | 0.00 | 36 | 1010.1 |
| 20260831152508 | 61 | 315 | 0.0 | 0.0 | 0.00 | 0.00 | 0.00 | 36 | 1010.1 |
| 20260831152007 | 60 | 315 | 0.0 | 0.0 | 0.00 | 0.00 | 0.00 | 36 | 1010.1 |
| 20260831151507 | 59 | 315 | 0.0 | 0.0 | 0.00 | 0.00 | 0.00 | 38 | 1010.1 |
| 20260831151008 | 58 | 315 | 0.0 | 0.0 | 0.00 | 0.00 | 0.00 | 38 | 1010.0 |
| 20260831150507 | 57 | 315 | 0.0 | 0.0 | 0.00 | 0.00 | 0.00 | 39 | 1010.0 |
| 20260831150008 | 56 | 315 | 0.0 | 0.0 | 0.00 | 0.00 | 0.00 | 39 | 1009.8 |
| 20260831145507 | 56 | 315 | 0.0 | 0.0 | 0.00 | 0.00 | 0.00 | 39 | 1009.8 |
| 20260831145009 | 55 | 315 | 0.0 | 0.0 | 0.00 | 0.00 | 0.00 | 37 | 1009.8 |
| 20260831144507 | 56 | 315 | 0.0 | 0.0 | 0.00 | 0.00 | 0.00 | 37 | 1009.7 |
| 20260831144007 | 55 | 315 | 0.0 | 0.0 | 0.00 | 0.00 | 0.00 | 38 | 1009.7 |
| 20260831143507 | 55 | 315 | 0.0 | 0.0 | 0.00 | 0.00 | 0.00 | 38 | 1009.7 |
| 20260831143007 | 54 | 315 | 0.0 | 0.0 | 0.00 | 0.00 | 0.00 | 39 | 1009.6 |
| 20260831142506 | 54 | 315 | 0.0 | 0.0 | 0.00 | 0.00 | 0.00 | 40 | 1009.6 |
| 20260831142008 | 54 | 315 | 0.0 | 0.0 | 0.00 | 0.00 | 0.00 | 39 | 1009.6 |
| 20260831141614 | 53 | 315 | 0.0 | 0.0 | 0.00 | 0.00 | 0.00 | 40 | 1009.6 |
| 20260831141006 | 52 | 315 | 0.0 | 0.0 | 0.00 | 0.00 | 0.00 | 41 | 1009.6 |
| 20260831140507 | 52 | 315 | 0.0 | 0.0 | 0.00 | 0.00 | 0.00 | 41 | 1009.5 |
| 20260831140015 | 52 | 315 | 0.0 | 0.0 | 0.00 | 0.00 | 0.00 | 44 | 1009.3 |
| 20260831135507 | 52 | 315 | 0.0 | 0.0 | 0.00 | 0.00 | 0.00 | 42 | 1009.2 |
| 20260831135009 | 53 | 315 | 0.0 | 0.0 | 0.00 | 0.00 | 0.00 | 41 | 1009.3 |
| 20260831134507 | 53 | 315 | 0.0 | 0.0 | 0.00 | 0.00 | 0.00 | 41 | 1009.2 |
| 20260831134007 | 53 | 315 | 0.0 | 0.0 | 0.00 | 0.00 | 0.00 | 42 | 1009.2 |
| 20260831133507 | 53 | 315 | 0.0 | 0.0 | 0.00 | 0.00 | 0.00 | 43 | 1009.1 |
| 20260831055008 | 58 | 315 | 0.0 | 0.0 | 0.00 | 0.00 | 0.00 | 43 | 1009.5 |
| 20260831054513 | 59 | 315 | 0.0 | 0.0 | 0.00 | 0.00 | 0.00 | 43 | 1009.5 |
| 20260831054010 | 59 | 315 | 0.0 | 0.0 | 0.00 | 0.00 | 0.00 | 42 | 1009.5 |
| 20260831053508 | 59 | 315 | 0.0 | 0.0 | 0.00 | 0.00 | 0.00 | 43 | 1009.4 |
| 20260831053008 | 59 | 315 | 0.0 | 0.0 | 0.00 | 0.00 | 0.00 | 42 | 1009.5 |
| 20260831052509 | 59 | 315 | 0.0 | 0.0 | 0.00 | 0.00 | 0.00 | 40 | 1009.5 |
| 20260831052107 | 59 | 315 | 0.0 | 0.0 | 0.00 | 0.00 | 0.00 | 42 | 1009.5 |
| 20260831051507 | 59 | 315 | 0.0 | 0.0 | 0.00 | 0.00 | 0.00 | 42 | 1009.7 |
| 20260831051107 | 59 | 315 | 0.0 | 0.0 | 0.00 | 0.00 | 0.00 | 43 | 1009.6 |
| 20260831050508 | 61 | 315 | 0.0 | 0.0 | 0.00 | 0.00 | 0.00 | 40 | 1009.7 |
| 20260831050108 | 60 | 315 | 0.0 | 0.0 | 0.00 | 0.00 | 0.00 | 39 | 1009.7 |
| 20260831045508 | 60 | 315 | 0.0 | 0.0 | 0.00 | 0.00 | 0.00 | 43 | 1009.7 |
| 20260831045008 | 61 | 315 | 0.0 | 0.0 | 0.00 | 0.00 | 0.00 | 38 | 1009.7 |
| 20260831044508 | 61 | 315 | 0.0 | 0.0 | 0.00 | 0.00 | 0.00 | 39 | 1009.7 |
| 20260831044008 | 61 | 315 | 0.0 | 0.0 | 0.00 | 0.00 | 0.00 | 40 | 1009.7 |
| 20260831043508 | 62 | 315 | 0.0 | 0.0 | 0.00 | 0.00 | 0.00 | 37 | 1009.6 |
| 20260831043007 | 62 | 315 | 0.0 | 0.0 | 0.00 | 0.00 | 0.00 | 38 | 1009.6 |
| 20260831042507 | 62 | 315 | 0.0 | 0.0 | 0.00 | 0.00 | 0.00 | 38 | 1009.6 |
| 20260831042007 | 62 | 315 | 0.0 | 0.0 | 0.00 | 0.00 | 0.00 | 38 | 1009.6 |
| 20260831041508 | 62 | 315 | 0.0 | 0.0 | 0.00 | 0.00 | 0.00 | 38 | 1009.4 |
| 20260831041010 | 62 | 315 | 0.0 | 0.0 | 0.00 | 0.00 | 0.00 | 40 | 1009.4 |
| 20260831040509 | 62 | 315 | 0.0 | 0.0 | 0.00 | 0.00 | 0.00 | 40 | 1009.4 |
| 20260831040008 | 62 | 315 | 0.0 | 0.0 | 0.00 | 0.00 | 0.00 | 41 | 1009.3 |
| 20260831035508 | 63 | 315 | 0.0 | 0.0 | 0.00 | 0.00 | 0.00 | 40 | 1009.3 |
| 20260831035008 | 64 | 315 | 0.0 | 0.0 | 0.00 | 0.00 | 0.00 | 38 | 1009.2 |
| 20260831034507 | 65 | 315 | 0.0 | 0.0 | 0.00 | 0.00 | 0.00 | 36 | 1009.3 |
| 20260831034008 | 65 | 315 | 0.0 | 0.0 | 0.00 | 0.00 | 0.00 | 37 | 1009.2 |
| 20260831033508 | 65 | 315 | 0.0 | 5.0 | 0.00 | 0.00 | 0.00 | 38 | 1009.1 |
| 20260831033110 | 65 | 315 | 0.0 | 5.0 | 0.00 | 0.00 | 0.00 | 39 | 1009.1 |
| 20260831032508 | 66 | 316 | 0.0 | 0.0 | 0.00 | 0.00 | 0.00 | 36 | 1009.0 |
| 20260831032008 | 67 | 316 | 0.0 | 0.0 | 0.00 | 0.00 | 0.00 | 35 | 1008.9 |
| 20260831031510 | 68 | 316 | 0.0 | 0.0 | 0.00 | 0.00 | 0.00 | 36 | 1008.8 |
| 20260831031007 | 68 | 316 | 0.0 | 0.0 | 0.00 | 0.00 | 0.00 | 38 | 1008.8 |
| 20260831030507 | 68 | 316 | 0.0 | 0.0 | 0.00 | 0.00 | 0.00 | 37 | 1008.7 |
| 20260831030010 | 69 | 316 | 0.0 | 0.0 | 0.00 | 0.00 | 0.00 | 37 | 1008.7 |
| 20260831025508 | 69 | 316 | 0.0 | 0.0 | 0.00 | 0.00 | 0.00 | 37 | 1008.6 |
| 20260831025011 | 69 | 316 | 0.0 | 1.0 | 0.00 | 0.00 | 0.00 | 36 | 1008.6 |
| 20260831024508 | 70 | 316 | 0.0 | 4.0 | 0.00 | 0.00 | 0.00 | 36 | 1008.5 |
| 20260831024008 | 70 | 316 | 0.0 | 6.0 | 0.00 | 0.00 | 0.00 | 36 | 1008.5 |
| 20260831023507 | 70 | 316 | 1.0 | 6.0 | 0.00 | 0.00 | 0.00 | 35 | 1008.4 |
| 20260831023009 | 71 | 315 | 1.0 | 5.0 | 0.00 | 0.00 | 0.00 | 35 | 1008.4 |
| 20260831022507 | 71 | 315 | 0.0 | 5.0 | 0.00 | 0.00 | 0.00 | 34 | 1008.4 |
| 20260831022008 | 72 | 314 | 2.0 | 6.0 | 0.00 | 0.00 | 0.00 | 34 | 1008.4 |
| 20260831021513 | 72 | 314 | 4.0 | 6.0 | 0.00 | 0.00 | 0.00 | 34 | 1008.3 |
| 20260831021009 | 72 | 302 | 1.0 | 5.0 | 0.00 | 0.00 | 0.00 | 33 | 1008.3 |
| 20260831020508 | 73 | 301 | 0.0 | 4.0 | 0.00 | 0.00 | 0.00 | 32 | 1008.3 |
| 20260831020008 | 73 | 301 | 0.0 | 4.0 | 0.00 | 0.00 | 0.00 | 32 | 1008.4 |
| 20260831015508 | 74 | 301 | 1.0 | 4.0 | 0.00 | 0.00 | 0.00 | 31 | 1008.4 |
| 20260831015008 | 75 | 301 | 0.0 | 6.0 | 0.00 | 0.00 | 0.00 | 30 | 1008.4 |
| 20260831014511 | 75 | 301 | 1.0 | 6.0 | 0.00 | 0.00 | 0.00 | 29 | 1008.4 |
| 20260831014008 | 76 | 301 | 0.0 | 5.0 | 0.00 | 0.00 | 0.00 | 28 | 1008.4 |
| 20260831013508 | 76 | 299 | 0.0 | 5.0 | 0.00 | 0.00 | 0.00 | 28 | 1008.3 |
| 20260831013008 | 77 | 299 | 0.0 | 5.0 | 0.00 | 0.00 | 0.00 | 28 | 1008.4 |
| 20260831012508 | 77 | 300 | 1.0 | 5.0 | 0.00 | 0.00 | 0.00 | 27 | 1008.4 |
| 20260831012009 | 78 | 299 | 1.0 | 5.0 | 0.00 | 0.00 | 0.00 | 26 | 1008.4 |
| 20260831011519 | 79 | 295 | 0.0 | 1.0 | 0.00 | 0.00 | 0.00 | 26 | 1008.4 |
| 20260831011007 | 80 | 295 | 0.0 | 6.0 | 0.00 | 0.00 | 0.00 | 25 | 1008.4 |
| 20260831010508 | 80 | 295 | 0.0 | 6.0 | 0.00 | 0.00 | 0.00 | 21 | 1008.4 |
| 20260831010008 | 80 | 292 | 0.0 | 6.0 | 0.00 | 0.00 | 0.00 | 24 | 1008.3 |
| 20260831005508 | 81 | 296 | 1.0 | 6.0 | 0.00 | 0.00 | 0.00 | 23 | 1008.2 |
| 20260831005008 | 82 | 293 | 0.0 | 0.0 | 0.00 | 0.00 | 0.00 | 22 | 1008.3 |
| 20260831004508 | 82 | 293 | 0.0 | 5.0 | 0.00 | 0.00 | 0.00 | 22 | 1008.3 |
| 20260831004009 | 82 | 293 | 1.0 | 5.0 | 0.00 | 0.00 | 0.00 | 22 | 1008.3 |
| 20260831003512 | 83 | 239 | 0.0 | 6.0 | 0.00 | 0.00 | 0.00 | 14 | 1008.4 |
| 20260831003012 | 82 | 184 | 1.0 | 7.0 | 0.00 | 0.00 | 0.00 | 15 | 1008.3 |
| 20260831002509 | 82 | 191 | 4.0 | 7.0 | 0.00 | 0.00 | 0.00 | 14 | 1008.3 |
| 20260831002007 | 83 | 187 | 4.0 | 8.0 | 0.00 | 0.00 | 0.00 | 14 | 1008.3 |
| 20260831001508 | 83 | 170 | 1.0 | 7.0 | 0.00 | 0.00 | 0.00 | 14 | 1008.3 |
| 20260831001008 | 83 | 162 | 5.0 | 8.0 | 0.00 | 0.00 | 0.00 | 13 | 1008.2 |
| 20260831000509 | 83 | 166 | 3.0 | 9.0 | 0.00 | 0.00 | 0.00 | 14 | 1008.3 |
| 20260831000008 | 83 | 171 | 5.0 | 10.0 | 0.00 | 0.00 | 0.00 | 14 | 1008.3 |
| 20260830235508 | 83 | 170 | 6.0 | 11.0 | 0.00 | 0.00 | 0.00 | 13 | 1008.3 |
| 20260830235009 | 83 | 176 | 7.0 | 13.0 | 0.00 | 0.00 | 0.00 | 13 | 1008.3 |
| 20260830234518 | 83 | 168 | 6.0 | 14.0 | 0.00 | 0.00 | 0.00 | 14 | 1008.3 |
| 20260830234008 | 84 | 152 | 5.0 | 12.0 | 0.00 | 0.00 | 0.00 | 13 | 1008.3 |
| 20260830233508 | 83 | 156 | 5.0 | 12.0 | 0.00 | 0.00 | 0.00 | 13 | 1008.3 |
| 20260830233010 | 84 | 166 | 5.0 | 14.0 | 0.00 | 0.00 | 0.00 | 13 | 1008.3 |
| 20260830232508 | 83 | 172 | 9.0 | 14.0 | 0.00 | 0.00 | 0.00 | 13 | 1008.4 |
| 20260830232009 | 84 | 164 | 6.0 | 14.0 | 0.00 | 0.00 | 0.00 | 12 | 1008.3 |
| 20260830231510 | 84 | 202 | 6.0 | 14.0 | 0.00 | 0.00 | 0.00 | 13 | 1008.3 |
| 20260830231008 | 84 | 185 | 8.0 | 12.0 | 0.00 | 0.00 | 0.00 | 12 | 1008.4 |
| 20260830230510 | 84 | 183 | 5.0 | 13.0 | 0.00 | 0.00 | 0.00 | 12 | 1008.5 |
| 20260830230008 | 84 | 166 | 6.0 | 14.0 | 0.00 | 0.00 | 0.00 | 13 | 1008.5 |
| 20260830225508 | 84 | 177 | 9.0 | 14.0 | 0.00 | 0.00 | 0.00 | 12 | 1008.5 |
| 20260830225008 | 84 | 166 | 7.0 | 13.0 | 0.00 | 0.00 | 0.00 | 13 | 1008.5 |
| 20260830224508 | 84 | 172 | 4.0 | 14.0 | 0.00 | 0.00 | 0.00 | 13 | 1008.6 |
| 20260830224008 | 84 | 187 | 8.0 | 14.0 | 0.00 | 0.00 | 0.00 | 13 | 1008.6 |
| 20260830223508 | 85 | 185 | 7.0 | 11.0 | 0.00 | 0.00 | 0.00 | 13 | 1008.6 |
| 20260830223008 | 85 | 184 | 7.0 | 11.0 | 0.00 | 0.00 | 0.00 | 14 | 1008.7 |
| 20260830222508 | 85 | 181 | 7.0 | 16.0 | 0.00 | 0.00 | 0.00 | 13 | 1008.7 |
| 20260830222008 | 85 | 192 | 6.0 | 16.0 | 0.00 | 0.00 | 0.00 | 13 | 1008.8 |
| 20260830221508 | 85 | 161 | 5.0 | 9.0 | 0.00 | 0.00 | 0.00 | 12 | 1008.9 |
| 20260830221009 | 84 | 177 | 5.0 | 13.0 | 0.00 | 0.00 | 0.00 | 13 | 1009.0 |
| 20260830220508 | 84 | 177 | 7.0 | 13.0 | 0.00 | 0.00 | 0.00 | 13 | 1009.1 |
| 20260830220008 | 84 | 199 | 4.0 | 14.0 | 0.00 | 0.00 | 0.00 | 13 | 1009.2 |
| 20260830215510 | 84 | 168 | 6.0 | 16.0 | 0.00 | 0.00 | 0.00 | 13 | 1009.2 |
| 20260830215013 | 84 | 204 | 4.0 | 16.0 | 0.00 | 0.00 | 0.00 | 13 | 1009.2 |
| 20260830214509 | 84 | 172 | 9.0 | 14.0 | 0.00 | 0.00 | 0.00 | 13 | 1009.3 |
| 20260830214007 | 84 | 163 | 6.0 | 14.0 | 0.00 | 0.00 | 0.00 | 12 | 1009.3 |